This is the latest recevied weather packets stored in our database for station/object GAPWX. If no packets are shown the sender has not sent any weather packets the latest 10 day(s).
| Time | Temp. | Humidity | Pressure | Rain* | Wind** | Luminosity | Snow |
|---|---|---|---|---|---|---|---|
| 1778128204 | 11.67° C | 61% | 1020.8 hPa | 0.25 mm | - | - | - |
| 1778127903 | 11.67° C | 61% | 1020.7 hPa | 0.25 mm | - | - | - |
| 1778127304 | 12.22° C | 61% | 1020.8 hPa | 0.25 mm | - | - | - |
| 1778126095 | 12.78° C | 60% | 1020.6 hPa | 0.25 mm | - | - | - |
| 1778125798 | 12.78° C | 59% | 1020.6 hPa | 0.25 mm | - | - | - |
| 1778125494 | 12.78° C | 59% | 1020.4 hPa | 0.25 mm | - | - | - |
| 1778125192 | 13.33° C | 59% | 1020.4 hPa | 0.25 mm | - | - | - |
| 1778123986 | 13.89° C | 57% | 1020.3 hPa | 0.25 mm | - | - | - |
| 1778123685 | 13.89° C | 57% | 1020.2 hPa | 0.25 mm | - | - | - |
| 1778123406 | 14.44° C | 57% | 1020.2 hPa | 0.25 mm | - | - | - |
| 1778123083 | 14.44° C | 56% | 1020.2 hPa | 0.25 mm | - | - | - |
| 1778122781 | 14.44° C | 56% | 1020.2 hPa | 0.25 mm | - | - | - |
| 1778122479 | 15° C | 55% | 1020.2 hPa | 0.25 mm | - | - | - |
| 1778121876 | 15° C | 54% | 1020.1 hPa | 0.25 mm | - | - | - |
| 1778121587 | 15.56° C | 54% | 1020 hPa | 0.25 mm | - | - | - |
| 1778120973 | 15.56° C | 53% | 1019.9 hPa | 0.25 mm | - | - | - |
| 1778120688 | 15.56° C | 53% | 1019.9 hPa | 0.25 mm | - | - | - |
| 1778120373 | 16.11° C | 52% | 1019.9 hPa | 0.25 mm | - | - | - |
| 1778119784 | 16.11° C | 52% | 1019.7 hPa | 0.25 mm | - | - | - |
| 1778119497 | 16.67° C | 51% | 1019.8 hPa | 0.25 mm | - | - | - |
| 1778118864 | 16.67° C | 51% | 1019.8 hPa | 0.25 mm | - | - | - |
| 1778118561 | 16.67° C | 50% | 1019.8 hPa | 0.25 mm | - | - | - |
| 1778117963 | 17.22° C | 50% | 1019.8 hPa | 0.25 mm | - | - | - |
| 1778117658 | 17.22° C | 50% | 1019.7 hPa | 0.25 mm | - | - | - |
| 1778117055 | 17.78° C | 49% | 1019.6 hPa | 0.25 mm | - | - | - |
* Rain since midnight (hover to see other rain measurements)
** Current wind speed in m/s (hover to see current wind gust speed)